Location: *
(44.3683°N, 6.6958°E)
Time: 00:09:11
(UTC+00:00)

ATLAS 5 CENTAUR R/B - Pass Details

Date: 14 October 2019
Orbit: 557 x 1102 km, 63.4° (Epoch: 11 November)

Event Time Altitude Azimuth Distance (km) Brightness Sun altitude
Rises 18:56:58 0° 257° (WSW) 2,806 6.0 -23.1°
Reaches altitude 10° 18:59:29 10° 272° (W) 1,961 5.2 -23.6°
Maximum altitude 19:03:01 23° 326° (NW) 1,388 3.8 -24.2°
Drops below altitude 10° 19:06:54 10° 18° (NNE) 2,180 4.3 -24.9°
Enters shadow 19:07:09 - 20° (NNE) 2,263 4.4 -24.9°
